Location: Unspecified
(0.0000°N, 0.0000°E)
Time: 07:20:23
(UTC+00:00)

N. Korean satellite - Visible Passes

Search period start: 29 March 2017 00:00
Search period end: 08 April 2017 00:00
Orbit: 461 x 520 km, 97.2° (Epoch: 27 March)

Date Brightness Start Highest point End Pass type
(mag) Time Alt. Az. Time Alt. Az. Time Alt. Az.
30 Mar 9.5 19:24:32 10° SSW 19:27:09 19° WSW 19:29:45 10° NW visible
31 Mar 7.8 19:01:10 10° S 19:04:40 43° W 19:08:05 10° NNW visible
01 Apr 6.5 18:38:31 10° SSE 18:42:09 71° E 18:45:41 10° N visible
03 Apr 9.6 19:28:03 10° SW 19:30:22 16° WSW 19:32:39 10° WNW visible
04 Apr 8.1 19:04:29 10° S 19:07:51 37° WSW 19:11:09 10° NNW visible
05 Apr 6.5 18:41:42 10° SSE 18:45:18 83° E 18:48:50 10° N visible
07 Apr 9.7 19:31:31 10° SW 19:33:28 14° WSW 19:35:24 10° WNW visible
